Showing default

OPS 6073 (DMSP 4A F2), 2669

Orbit data source: Space-Track

OPS 6073 (DMSP 4A F2), 2669 is a payload satellite owned by USAF SSD (US) in SSO that was launched on Wed, 08 Feb 1967 UTC via a THOR BURNER 2 launch vehicle from the Air Force Western Test Range (AFWTR). Payloads include a variety of satellites, spacecraft, and rockets equipped with specific instruments for various scientific and technological missions. These include communications satellites like Starlink; space stations such as the ISS; scientific satellites like the Hubble; Earth observation satellites from companies like Planet Labs, Umbra, and HawkEye 360; GPS; miniature CubeSats for education and research; and military/defense satellites.

Loading next visibility...
OPS 6073 (DMSP 4A F2) details
Identifier
2669, 1967-010A
Orbit
SSO
Last TLE update15 hours ago
Origin
Flag of USUSAF SSD (US)
ManufacturerRCA/East Windsor
MissionNon-operational Defense Weather
Bus & MotorDMSP BLOCK 4A, Unknown motor
Mass79 kg wet, 79 kg dry
Launch date (UTC)
1967-02-08 (58 years ago)
Launch vehicle
THOR BURNER 2
Launch site
Air Force Western Test Range (AFWTR)
Object type
Payload
Rocket body
Debris
Shape & HBROct Cyl, 0.8 m
Radar Cross Section0.655 m², Medium (>0.1 m² and < 1m²)

Expand to show TLE details & history

TLE from 15 hours ago
0 OPS 6073 (DMSP 4A F2)
1 02669U 67010A   25013.79345115  .00000291  00000-0  13492-3 0  9997
2 02669  99.0625 350.4280 0050048  81.5334 279.1514 14.27908372 10204
Epoch: 2025-01-13T19:02Z
Definitive object data (Epoch: 2025-01-13T19:02:34.179Z)
Latitude-0.00001°
Longitude-48.72381°
Altitude796.106 km
Speed7.458 km/s
True Right ascension23h 21m 42s
True Declination0° 00' 00"
Sunlit
Object was in daylight at TLE epoch
Visualization TLE readout
Latitude-68.76693°
Longitude-23.98245°
Altitude855.681 km
Speed7.408 km/s
Apparent Right ascension23h 19m 41s
Apparent Declination-56° 29' 32"
Sunlit
Object is in daylight
Visualization observer readout
Local Sidereal Time10:26:48
Azimuth203.192° SW
Elevation-71.302°
Doppler factor1
Orbital elements
Apogee altitude831.801 km
Perigee altitude759.991 km
Semi-major axis7,174.033 km
Eccentricity0.0050048
Inclination99.0625°
RAAN350.428°
Arg. of periapsis81.5334°
True anomaly278.58464°
Mean anomaly279.1514°
Eccentric anomaly278.86807°
Mean motion3.57189 °/min
BSTAR0.00013492
Orbital period100.79 mins
Loading maneuver chart data...
Loading historical data...
Loading historical data...
Loading historical data...
Loading historical data...
Loading historical data...
Loading historical data...
Loading historical data...
Other satellites on launch #10 in the year 1967 (1967-02-08 UTC)

OPS 6073 (DMSP 4A F2) Visibility forecast

Observer location: undefined°, undefined

Span
Click to sort rows by Start time (UTC) header in descending order
Start Az.
Max El. time (UTC)
Max El. Az.
Max El.
End time (UTC)
End Az.
8 mins2025-01-14 10:45:48.889Z30.02° NE2025-01-14 10:49:48.889Z100.72° ESE36.387°2025-01-14 10:53:48.889Z170.463° S
5 mins2025-01-14 12:26:48.889Z329.049° NNW2025-01-14 12:28:48.889Z300.246° NW19.431°2025-01-14 12:31:48.889Z257.986° W
8 mins2025-01-14 22:04:48.889Z155.722° SSE2025-01-14 22:08:48.889Z34.585° NE43.175°2025-01-14 22:12:48.889Z350.582° N
|